Location: Dompnac
(44.5644°N, 4.1026°E)
Time: 13:46:06
(UTC+00:00)

Cosmos 2026 Rocket - Pass Details

Date: 18 January 2021
Orbit: 940 x 1000 km, 82.9° (Epoch: 28 February)

Event Time Altitude Azimuth Distance (km) Brightness Sun altitude
Rises 20:29:39 0° 225° (SW) 3,601 7.3 -41.5°
Reaches altitude 10° 20:32:37 10° 238° (WSW) 2,667 6.7 -42.1°
Enters shadow 20:36:57 24° 284° (WNW) 1,857 5.9 -42.8°
